Location: Unspecified
(0.0000°N, 0.0000°E)
Time: 16:29:27
(UTC+00:00)

CZ-3 Stage 3 - Pass Details

Date: 19 May 2019
Orbit: 501 x 34691 km, 30.5° (Epoch: 15 June)

Event Time Altitude Azimuth Distance (km) Brightness Sun altitude
Exits shadow 00:13:02 16° 346° (NNW) 4,320 6.4 -69.9°
Maximum altitude 07:31:14 55° 121° (ESE) 29,056 11.1 22.2°
Drops below altitude 10° 09:35:56 10° 128° (SE) 12,101 8.9 50.3°
Sets 09:42:24 0° 126° (SE) 11,397 8.7 51.7°
